Back to catalog

STARLINK-31544

AliveCommunicationsVLEO
NORAD 59399·PAYLOAD·🇺🇸 United States

Launched Apr 5, 2024 from Cape Canaveral Space Force Station

Loading…

Next Passes (next 24 hours)

TLE

FreshSource: CelesTrak SupGP

Epoch: Sep 14, 2026, 22:02 UTC

1 59399C 24064B   26257.91854167  .00042660  00000+0  15453-2 0  2578
2 59399  43.0039  67.8185 0001421 272.3039  40.3293 15.27553971    12

Track STARLINK-31544 in real time with AllMySat

Download on the App Store